Lapse_Rate
6.1 6.0 6.1 6.3 6.2 6.1 5.6 5.5 5.9 5.8 5.9 5.8 5.7 5.5 5.5 6.0 6.3 6.2 5.8 5.6 5.5 5.9 5.9 6.0 6.1 6.1 6.1 6.0 5.9 5.8 5.6 5.5 5.6 5.5 5.5 5.6 5.6 5.6 5.5 5.5 5.4 5.5 5.6 5.7 5.9 5.8 5.9 5.8 5.8
6.2 6.4 6.2 6.2 6.2 6.1 5.5 5.7 6.1 6.0 6.1 5.9 5.7 6.0 5.8 5.7 6.1 6.0 5.7 5.6 5.6 5.8 5.9 6.0 6.1 6.0 6.1 5.8 5.9 5.7 5.7 5.7 5.6 5.6 5.7 5.7 5.7 5.5 5.5 5.4 5.4 5.6 5.9 6.0 6.0 6.1 6.2 6.2 6.1
6.2 6.3 6.2 6.3 6.5 6.2 6.0 6.0 6.2 6.5 6.2 6.1 5.9 6.1 5.9 5.9 6.1 5.8 5.9 5.9 5.9 5.9 5.8 6.0 6.1 5.9 5.9 5.8 5.6 5.6 5.7 5.6 5.5 5.6 5.6 5.8 5.7 5.6 5.5 5.6 5.6 5.9 6.2 6.2 6.1 6.2 6.1 6.2 6.2
6.0 6.3 6.4 6.2 6.0 5.9 6.2 6.0 6.1 6.5 6.3 6.0 6.0 6.0 5.9 6.0 5.8 6.0 6.1 6.0 5.9 5.9 6.1 6.2 6.1 6.1 5.9 5.8 5.7 5.8 5.8 5.7 5.7 5.8 6.0 6.0 5.9 5.8 5.7 5.7 5.9 6.1 6.2 6.2 6.3 6.4 6.4 6.4 6.3
6.2 6.2 6.3 6.0 5.8 6.0 6.0 6.1 6.2 6.1 6.4 6.5 6.0 6.0 6.1 6.1 5.9 6.1 6.1 6.1 6.2 6.1 6.3 6.5 6.4 6.1 6.0 5.9 6.0 6.0 5.9 5.9 6.1 6.2 6.1 6.0 6.0 6.0 5.9 6.0 6.1 6.1 6.1 6.2 6.3 6.3 6.4 6.4 6.5
6.1 6.4 6.2 5.9 6.0 6.1 6.0 6.0 5.8 5.9 6.1 6.3 6.1 6.3 6.3 6.2 6.1 6.1 6.2 6.3 6.4 6.3 6.4 6.7 6.5 6.1 6.0 6.1 6.1 6.1 6.2 6.2 6.2 6.2 6.1 6.1 6.2 6.1 6.1 6.2 6.2 6.3 6.4 6.3 6.4 6.6 6.5 6.5 6.5
6.4 6.5 6.3 6.1 6.2 6.4 6.3 6.0 5.7 6.0 6.1 6.2 6.4 6.5 6.5 6.5 6.3 6.2 6.3 6.4 6.5 6.7 6.8 6.5 6.3 6.2 6.2 6.3 6.3 6.3 6.3 6.3 6.3 6.1 6.3 6.2 6.2 6.3 6.3 6.2 6.2 6.2 6.3 6.3 6.3 6.5 6.7 6.7 6.5
6.3 6.3 6.0 6.1 6.3 6.1 6.1 6.0 6.0 6.1 6.3 6.3 6.5 6.6 6.5 6.7 6.5 6.4 6.4 6.6 6.6 6.8 6.7 6.5 6.4 6.2 6.2 6.3 6.2 6.3 6.2 6.2 6.1 6.3 6.4 6.2 6.4 6.2 6.2 6.2 6.3 6.3 6.5 6.4 6.4 6.3 6.5 6.5 6.4
6.3 6.2 6.2 6.2 6.1 6.2 6.2 6.3 6.2 6.3 6.6 6.5 6.4 6.4 6.5 6.7 6.6 6.5 6.5 6.6 6.7 6.7 6.6 6.5 6.4 6.2 6.2 6.2 6.3 6.2 6.2 6.2 6.2 6.3 6.3 6.5 6.6 6.5 6.5 6.3 6.3 6.2 6.2 6.2 6.1 6.3 6.5 6.5 6.4
6.1 6.2 6.2 6.3 6.4 6.3 6.2 6.2 6.0 6.2 6.4 6.3 6.1 6.4 6.4 6.5 6.5 6.4 6.4 6.4 6.2 6.3 6.3 6.2 6.2 6.2 6.2 6.1 6.3 6.1 6.2 6.1 6.0 6.1 6.3 6.5 6.4 6.3 6.4 6.5 6.4 6.3 6.3 6.6 6.7 6.5 6.4 6.4 6.6
6.7 6.5 6.5 6.5 6.2 6.3 6.3 6.1 6.1 6.2 6.2 6.3 6.7 6.7 6.4 6.3 6.3 6.2 6.3 6.2 5.9 5.9 6.0 6.1 6.1 6.2 6.1 6.1 6.1 6.1 6.2 6.1 6.0 6.1 6.3 6.3 6.3 6.4 6.4 6.5 6.4 6.5 6.7 6.8 6.8 6.8 6.8 6.8 6.7
6.6 6.5 6.2 6.0 6.3 6.3 6.3 6.3 6.1 6.0 6.2 6.4 6.1 6.2 6.5 6.2 6.2 6.2 6.3 6.0 5.9 5.9 5.8 5.8 5.9 6.0 6.0 6.0 6.0 6.0 6.0 6.0 6.0 6.1 6.2 6.2 6.2 6.3 6.3 6.3 6.5 6.7 6.7 6.9 6.9 6.9 6.9 6.8 6.9
7.0 6.7 6.1 6.0 6.2 6.2 6.2 6.1 6.4 6.4 6.3 6.5 6.3 6.1 6.1 6.1 6.1 6.1 6.1 6.1 5.9 5.8 5.8 5.7 5.6 5.8 6.0 5.9 5.8 5.9 6.0 5.9 5.9 5.9 6.0 6.2 6.2 6.2 6.3 6.1 6.3 6.3 6.4 6.8 6.9 6.8 7.0 7.1 6.8
6.9 6.9 6.3 6.1 6.1 6.1 6.1 6.3 6.2 6.4 6.4 6.4 6.3 6.1 6.1 6.1 6.1 6.2 6.2 5.9 5.8 5.6 5.5 5.5 5.6 5.7 5.8 5.7 5.7 5.7 5.8 5.8 5.9 5.9 6.0 6.0 6.1 6.2 6.3 6.1 6.0 6.0 6.0 6.1 6.3 6.3 6.5 6.8 6.8
7.0 7.0 6.5 6.2 6.0 6.0 6.0 6.3 6.2 6.2 6.3 6.2 6.2 6.1 6.1 6.1 6.0 5.7 5.7 5.6 5.5 5.5 5.4 5.3 5.5 5.5 5.5 5.5 5.6 5.5 5.7 5.7 5.6 5.7 5.9 5.9 5.9 6.0 6.0 6.0 6.0 6.0 6.0 6.0 6.0 5.9 6.2 6.4 6.6
6.7 6.8 6.2 6.3 6.3 6.2 6.1 6.2 6.4 6.2 6.1 5.9 5.8 5.7 5.9 6.0 5.6 5.5 5.3 5.1 5.1 5.2 5.1 5.2 5.3 5.4 5.3 5.4 5.2 5.3 5.4 5.5 5.7 5.7 5.5 5.6 5.9 5.9 6.0 6.0 5.9 5.9 6.0 6.1 6.1 6.1 6.1 6.1 6.3
6.8 6.7 6.7 6.7 6.8 6.6 6.6 6.5 6.6 6.5 6.3 6.0 5.8 5.7 5.3 5.4 5.4 5.3 5.2 5.0 4.8 4.8 5.0 5.1 5.2 5.4 5.4 5.2 5.3 5.2 5.2 5.4 5.4 5.4 5.7 5.6 5.4 5.6 5.7 5.8 5.7 5.7 5.6 5.9 6.0 6.1 6.1 6.0 6.0
6.8 6.7 6.8 6.3 6.3 6.4 6.5 6.4 6.3 6.2 6.0 5.8 5.7 5.6 5.3 5.2 5.5 5.1 5.3 5.1 4.7 4.7 4.9 5.0 5.1 5.4 5.3 5.3 5.2 5.3 5.4 5.1 5.3 5.4 5.4 5.5 5.6 5.5 5.5 5.5 5.8 5.8 5.9 6.1 6.1 6.2 6.2 6.2 6.2
6.7 6.6 7.0 6.7 6.5 6.2 6.0 6.0 6.1 6.1 6.1 6.0 5.9 5.6 5.5 5.3 5.0 4.9 5.0 5.0 4.9 4.4 4.5 4.6 4.7 4.9 5.2 5.3 5.5 5.3 5.2 5.2 5.1 4.9 5.1 5.3 5.3 5.5 5.8 5.9 5.9 6.2 6.2 6.0 6.2 6.3 6.3 6.2 6.3
7.0 6.7 6.7 6.9 6.7 6.5 6.4 6.5 6.3 6.3 6.4 6.3 6.2 6.1 5.7 5.3 5.1 5.1 4.9 4.8 5.0 4.8 4.6 4.4 4.6 4.8 4.9 5.0 5.2 5.4 5.4 5.3 5.3 5.3 5.3 5.5 5.4 5.4 5.6 5.9 5.8 6.0 6.3 6.3 6.2 6.5 6.4 6.3 6.4
7.3 7.3 7.2 6.8 6.6 6.6 6.5 7.0 7.0 6.6 6.3 6.3 6.2 6.1 5.9 5.7 5.3 5.3 5.3 5.1 4.9 4.9 4.8 4.5 4.6 4.7 4.9 5.0 5.0 5.2 5.6 5.4 5.3 5.6 5.4 5.4 5.3 5.5 5.4 5.5 5.6 5.7 5.8 6.0 5.9 6.0 5.9 5.9 6.2
6.7 7.0 7.0 6.9 6.5 6.5 6.5 6.5 7.0 7.2 7.1 6.6 6.4 6.4 6.3 6.0 5.7 5.4 5.3 5.4 5.2 5.0 5.0 5.0 4.8 4.8 4.9 4.9 5.3 5.5 5.5 5.5 5.3 5.3 5.2 5.4 5.5 5.7 5.7 5.7 5.6 5.7 5.6 5.9 5.8 5.7 5.7 5.7 5.7
7.5 7.3 7.1 6.9 6.8 6.6 6.4 6.8 7.7 7.8 8.0 7.8 7.2 6.7 6.5 6.4 6.2 6.0 5.6 5.3 5.2 5.1 5.2 5.2 5.1 5.2 5.1 5.3 5.6 5.8 5.8 5.7 5.4 5.1 5.5 5.5 5.6 5.6 5.7 5.8 5.7 5.8 5.7 6.0 5.9 5.6 5.5 5.7 5.8
7.8 7.6 7.2 6.9 6.5 6.7 6.9 6.8 8.0 8.3 8.4 8.3 8.1 7.5 7.0 6.7 6.6 6.4 6.3 5.9 5.5 5.3 5.3 5.3 5.4 5.5 5.4 5.7 5.9 5.8 5.9 5.4 5.4 5.3 5.2 5.3 5.4 5.3 5.4 5.4 5.6 5.6 5.7 5.6 5.7 5.6 5.6 5.6 5.4
8.1 8.0 8.0 7.3 6.8 7.7 6.7 5.8 7.8 8.3 8.3 8.5 8.4 8.3 7.9 7.5 7.0 6.7 6.5 6.4 6.2 6.0 6.0 6.0 5.9 5.8 5.6 5.6 5.7 5.7 5.7 5.7 5.7 5.5 5.3 5.2 5.2 5.2 5.1 5.4 5.5 5.6 5.6 5.7 5.8 5.9 5.9 5.9 5.8
8.6 8.0 8.4 8.2 8.0 7.9 6.9 6.7 7.8 8.3 8.2 8.5 8.8 8.7 8.4 8.0 7.6 7.4 7.2 6.9 6.7 6.5 6.3 6.3 6.1 5.7 5.7 5.8 5.9 5.7 5.8 5.7 5.6 5.5 5.3 5.2 5.1 4.9 5.2 5.4 5.6 5.8 5.8 5.9 5.8 5.8 5.6 5.4 5.4
7.8 7.6 8.1 8.0 7.3 7.3 7.4 7.6 7.9 8.2 8.2 8.4 8.6 8.7 8.7 8.3 8.0 7.8 7.4 7.3 7.2 7.0 6.7 6.2 5.9 5.9 5.7 5.2 5.5 5.9 5.8 5.6 5.1 5.5 5.3 5.2 5.0 5.1 5.2 5.4 5.6 5.5 5.8 5.9 5.7 5.7 5.4 5.3 5.2
7.8 8.3 8.2 8.1 8.3 8.0 8.0 7.2 8.7 8.6 8.6 8.6 8.4 8.4 8.6 8.5 8.3 8.1 7.6 7.4 7.2 7.0 6.8 6.3 6.2 6.1 5.9 5.7 5.6 4.9 5.6 5.2 5.1 4.6 4.5 4.9 5.1 4.9 5.3 5.4 5.4 5.5 5.4 5.6 5.6 5.6 5.5 5.2 4.9
8.1 8.0 8.2 8.3 7.9 8.8 8.9 8.8 9.0 9.1 8.9 8.7 8.6 8.6 8.5 8.3 8.3 8.1 7.7 7.5 6.9 7.1 6.6 5.1 6.1 6.2 5.8 4.6 5.0 4.5 4.4 4.0 5.0 5.2 5.2 5.3 5.7 5.8 5.8 5.6 5.3 5.4 5.3 5.7 5.7 5.6 5.6 5.1 5.1
8.5 8.3 8.4 8.3 8.3 7.7 8.0 8.2 8.9 9.1 9.2 9.3 9.3 9.0 8.5 8.1 8.0 7.9 7.6 7.4 7.1 7.0 7.0 6.4 5.2 5.3 5.5 5.0 5.6 4.8 4.4 5.3 5.5 5.9 6.1 5.5 5.4 5.3 5.6 5.6 5.3 5.5 5.2 5.3 5.2 5.4 5.5 5.4 5.3
Wind_Speed
3 2 2 1 1 5 6 5 8 14 9 2 9 1 5 7 2 7 4 5 9 8 8 8 8 11 11 11 11 12 12 12 12 12 14 12 13 13 13 13 14 14 14 14 13 13 13 12 12
1 2 1 1 3 7 5 7 14 7 6 12 10 6 4 4 3 9 8 9 9 10 9 9 8 10 10 9 9 10 12 11 11 12 12 11 13 13 13 12 13 13 13 12 13 13 14 12 11
3 3 1 3 3 6 6 3 7 7 12 5 4 5 3 3 7 10 6 11 10 10 9 10 10 10 10 9 9 8 10 10 10 12 12 11 12 11 11 11 11 10 10 10 11 11 10 9 8
1 1 2 4 10 5 5 11 15 12 6 2 8 8 5 5 6 5 12 11 10 9 8 10 10 9 10 10 8 8 9 10 10 10 11 11 11 11 11 10 9 8 8 8 8 8 7 6 5
1 1 3 6 10 5 11 14 11 8 8 8 3 6 9 3 9 14 12 10 10 9 7 7 9 9 9 8 7 7 8 10 9 10 11 10 10 9 9 8 7 7 8 6 7 6 6 5 5
2 1 4 6 10 11 9 8 7 8 9 10 11 13 5 8 13 11 10 10 9 8 8 6 9 8 6 5 7 9 8 9 8 8 9 8 7 7 8 7 6 7 7 6 6 6 5 4 3
2 1 4 9 11 8 6 6 5 8 9 7 13 9 6 10 10 10 10 9 8 8 7 7 6 6 3 7 13 10 9 9 8 7 7 5 4 4 5 5 4 6 5 5 4 4 4 3 3
2 0 6 4 8 4 9 5 9 7 5 11 12 6 9 12 12 10 10 8 7 6 5 5 6 4 6 7 9 9 9 8 7 7 6 5 3 2 3 4 5 5 4 4 4 3 3 3 5
0 2 4 4 8 8 12 7 5 4 12 4 4 11 15 17 13 11 10 8 7 5 4 4 5 4 5 7 8 8 9 8 7 7 6 5 4 3 2 1 3 4 4 4 4 4 3 4 3
2 1 2 3 5 9 12 10 9 8 9 7 13 15 19 16 14 14 11 9 8 8 6 5 5 6 7 7 6 6 7 5 4 4 3 2 2 3 4 3 5 5 5 5 5 6 5 5 6
2 1 3 3 7 15 13 11 5 12 6 8 22 22 19 16 14 13 12 11 10 8 6 7 7 6 6 5 5 4 3 3 3 4 3 3 4 5 6 5 5 5 5 5 5 7 6 2 6
1 3 3 8 11 12 12 11 12 1 1 14 19 19 18 16 14 14 13 11 10 9 9 9 8 7 6 4 5 4 2 1 0 1 2 1 0 2 4 4 4 2 2 5 6 5 3 4 6
1 3 5 9 11 11 11 8 10 5 13 19 18 17 17 15 14 12 10 10 10 10 9 9 8 7 7 5 3 2 2 2 1 0 1 1 1 2 1 2 2 1 1 4 4 4 4 4 6
2 9 14 10 10 8 9 6 2 7 16 17 19 17 15 15 14 12 11 12 12 11 12 11 9 9 8 5 4 3 2 2 2 2 0 1 3 3 1 3 2 2 1 1 1 2 4 2 4
4 17 12 8 6 4 11 5 0 12 16 17 17 15 15 14 14 13 13 12 13 11 12 12 11 10 8 6 5 5 4 3 3 3 3 4 2 1 1 1 2 2 2 1 1 2 2 3 4
6 5 4 6 8 8 3 2 5 14 17 17 16 14 14 16 16 14 13 12 11 11 12 11 9 10 8 7 7 8 7 6 4 3 4 3 3 2 2 1 2 2 2 3 2 2 2 2 3
3 5 6 8 6 6 9 2 8 15 15 16 16 15 14 13 15 15 15 14 13 13 12 12 11 11 10 8 7 8 7 7 5 5 6 5 4 4 4 4 3 3 3 4 2 2 4 5 6
2 4 3 6 4 10 10 7 11 16 17 16 16 15 14 15 18 16 15 14 14 13 12 12 10 11 8 4 3 4 4 5 4 5 7 7 6 5 4 3 4 2 2 3 2 4 4 5 6
4 5 4 4 2 5 8 8 11 16 16 15 16 15 16 17 16 14 15 15 14 13 13 13 11 11 6 5 5 5 5 4 3 1 2 5 5 4 4 4 3 3 3 3 3 3 4 4 4
5 5 5 4 3 3 2 9 11 17 21 20 19 18 19 18 15 15 16 16 17 17 16 14 14 12 9 7 5 4 3 2 2 3 3 2 2 3 2 1 1 3 4 3 2 3 3 3 3
12 10 7 2 3 4 6 8 11 14 17 18 18 17 18 19 18 17 16 18 18 18 17 15 14 13 12 11 6 4 1 1 3 3 1 3 2 3 3 3 1 2 2 2 2 3 3 2 0
8 6 9 5 3 4 5 5 3 10 17 20 20 19 20 20 20 18 17 17 19 20 17 17 15 11 12 11 9 10 9 6 4 2 3 3 3 3 5 2 2 3 3 3 3 3 2 2 2
1 2 5 5 3 3 1 3 3 3 10 18 20 22 21 21 20 20 20 20 20 16 16 16 15 15 13 11 13 10 11 5 3 3 5 5 7 8 8 7 6 7 5 5 6 6 7 5 4
14 13 9 5 1 4 4 5 8 3 1 1 13 20 21 19 18 19 18 15 15 14 14 14 15 14 12 11 14 14 12 6 6 5 5 5 5 5 9 7 9 8 6 6 6 7 9 7 7
2 7 0 1 2 4 3 6 10 4 5 5 12 14 20 19 18 16 16 16 16 17 16 14 14 14 14 13 13 12 8 8 8 8 6 7 4 5 6 6 5 6 8 8 7 7 8 7 7
15 5 6 8 6 4 3 6 4 2 4 6 8 9 15 17 15 16 14 12 11 11 8 10 7 5 2 1 5 2 6 6 6 7 7 5 4 6 4 5 5 6 8 9 8 5 6 7 7
7 8 3 3 2 4 4 6 8 4 2 6 10 11 10 11 10 9 10 5 6 8 9 14 18 16 15 14 10 7 5 8 10 12 8 7 5 3 6 7 6 7 7 8 8 6 8 7 6
5 6 4 3 6 9 7 5 9 7 4 4 6 6 8 11 11 10 10 12 13 15 16 20 19 16 11 9 9 6 7 6 11 8 9 10 5 2 5 5 5 4 5 6 7 7 5 6 5
5 4 2 2 3 11 14 6 2 3 3 4 2 4 6 8 9 9 10 11 13 13 15 14 14 13 11 4 8 6 3 6 7 9 7 8 8 10 8 7 6 6 7 7 5 6 5 6 3
2 10 10 8 6 4 5 5 1 2 5 7 6 5 6 7 6 8 9 10 12 15 13 8 12 12 10 10 12 11 9 7 5 6 7 6 4 4 4 6 5 7 4 4 4 4 2 2 4
Wind_Direction
204 204 273 249 87 85 73 64 116 125 129 112 138 189 103 50 37 110 141 148 138 124 125 123 125 109 106 107 105 103 100 100 104 101 101 101 103 95 94 95 94 93 91 91 91 90 90 87 86
185 247 262 124 84 99 74 116 132 130 117 120 103 109 63 79 72 126 140 150 130 120 123 121 106 102 99 97 96 99 104 100 106 105 104 105 101 100 99 97 96 94 94 95 94 92 91 90 86
228 262 346 56 73 88 115 154 118 105 134 117 110 68 64 85 118 137 120 136 130 123 124 124 121 112 109 112 104 110 105 103 100 106 106 105 100 97 92 87 87 93 97 98 96 97 97 97 91
239 144 84 80 85 65 127 146 134 136 120 77 121 83 85 121 137 138 137 136 131 128 125 114 116 111 110 110 108 105 98 110 107 103 105 95 103 93 91 90 88 90 93 96 101 103 104 99 91
196 85 72 93 76 88 118 135 145 132 128 143 159 114 110 52 114 134 140 140 137 133 124 119 127 115 115 112 111 105 93 86 85 83 89 93 89 91 88 84 85 86 88 103 112 109 103 106 92
61 347 105 96 104 116 129 143 120 111 119 123 121 121 91 126 134 143 141 141 140 134 131 127 119 115 119 119 137 113 109 104 96 90 91 93 97 94 91 87 85 83 92 105 117 126 128 121 119
76 57 94 120 128 137 145 120 114 120 131 120 137 113 121 149 147 146 140 142 139 130 131 120 114 117 117 91 132 118 121 112 114 119 106 105 104 102 100 103 105 101 106 118 142 163 173 198 217
88 180 123 114 158 128 139 108 121 121 96 120 149 148 157 161 156 145 142 141 135 129 132 130 122 101 95 119 104 116 119 125 133 129 136 145 140 131 159 168 163 139 139 147 165 201 224 260 280
39 57 129 150 173 147 149 134 78 114 131 116 170 152 143 150 153 149 147 149 147 147 149 148 139 122 118 113 123 132 132 145 149 150 175 160 146 156 194 175 210 182 179 196 209 227 256 321 322
40 79 163 175 156 151 158 141 128 149 131 108 115 123 139 153 163 162 166 166 166 165 163 160 151 142 136 131 134 131 134 146 156 170 178 175 177 218 235 240 257 249 226 225 259 272 289 281 353
87 53 355 201 139 147 143 134 127 147 176 179 156 148 155 163 170 172 175 173 171 171 172 168 159 160 155 144 154 149 160 201 226 237 226 267 255 234 235 233 234 237 230 251 257 243 237 292 341
220 271 266 132 140 143 147 126 131 115 119 149 152 153 158 169 177 179 179 176 173 176 177 169 168 173 172 163 176 160 178 168 152 120 144 108 315 212 208 227 220 222 267 264 270 256 303 325 311
215 353 76 128 127 129 130 138 133 79 127 141 151 159 168 174 179 184 182 178 176 179 180 180 183 190 183 189 197 242 201 198 185 299 130 20 79 69 202 192 189 199 244 280 297 318 336 315 311
358 112 110 110 110 124 128 128 138 132 144 148 160 171 176 181 182 184 188 186 183 182 184 182 198 202 201 206 207 225 223 241 311 309 167 355 346 333 207 170 169 217 245 133 259 320 318 341 313
130 105 94 106 108 104 129 154 162 150 161 158 172 177 181 192 195 198 194 194 188 189 188 193 200 206 215 226 241 245 241 221 253 295 275 195 247 19 353 36 12 352 276 213 236 307 293 319 319
123 94 135 166 163 163 209 237 146 165 170 171 178 185 192 197 202 204 206 206 195 191 194 199 202 204 217 234 255 255 247 233 242 265 284 279 228 225 210 271 291 341 251 257 261 303 308 299 308
43 156 153 177 198 166 200 223 172 176 182 181 185 192 201 201 211 210 210 212 208 201 198 201 204 213 215 233 257 248 243 232 248 238 232 236 212 216 241 256 258 265 243 250 273 315 330 330 333
206 179 175 179 186 190 200 233 179 184 189 193 195 196 206 214 218 212 209 213 215 213 211 211 210 213 218 218 221 237 226 246 233 227 231 232 221 200 228 280 282 254 240 259 295 315 323 316 324
229 248 184 161 89 195 226 248 200 192 198 198 203 204 211 220 222 222 219 213 213 216 214 214 215 226 200 192 210 221 226 208 193 313 277 236 257 256 212 230 264 251 248 268 256 292 310 312 337
235 254 246 128 91 209 249 237 198 197 207 205 200 204 214 224 222 222 216 217 215 213 216 212 215 208 208 210 210 231 232 206 170 146 138 143 127 63 28 16 4 339 278 245 287 266 289 289 4
259 269 263 306 149 120 297 266 206 208 216 218 219 214 213 222 225 220 212 213 215 217 211 209 211 210 207 209 217 230 212 194 187 165 137 42 68 79 82 72 103 53 27 68 61 331 298 261 132
257 258 249 238 240 280 357 297 268 219 216 212 217 218 219 217 224 228 221 212 214 218 214 209 204 195 207 204 216 224 234 221 210 174 145 83 84 96 96 96 106 78 74 73 80 64 40 346 22
312 178 139 130 124 285 167 279 273 259 225 221 223 219 221 221 218 222 220 218 214 211 210 209 204 200 197 198 214 215 225 225 143 131 119 104 74 60 67 79 87 80 75 69 69 57 47 52 48
123 107 88 74 77 258 240 227 286 259 137 269 232 230 226 223 216 218 220 217 213 208 209 206 202 202 194 192 207 213 217 197 153 160 155 117 81 54 41 54 55 58 70 64 73 71 64 61 54
188 172 245 235 218 272 120 191 254 252 313 308 292 266 236 219 219 209 200 198 200 200 202 202 201 202 204 206 210 215 212 179 165 159 138 132 113 78 45 33 62 79 83 82 79 76 77 75 74
194 225 248 250 239 278 133 232 245 309 322 348 347 288 239 226 219 218 213 203 203 197 185 196 192 201 238 181 51 112 149 139 120 105 99 93 95 85 91 82 74 85 94 92 87 81 79 76 72
167 207 267 240 88 266 235 265 268 240 300 10 20 36 49 53 58 84 81 103 140 126 109 86 75 62 44 32 27 44 81 113 116 107 102 102 94 110 124 100 86 65 72 85 93 87 92 86 71
242 133 194 213 247 252 230 250 260 219 205 36 16 53 65 70 75 76 77 79 80 87 92 100 89 82 77 103 87 44 22 26 100 107 116 103 104 128 96 97 94 85 99 97 89 92 85 90 74
180 209 189 234 255 266 274 263 230 250 195 151 119 101 102 104 108 107 105 101 107 112 119 123 107 103 117 190 107 130 152 159 110 109 120 134 156 166 168 170 165 136 116 97 101 96 92 58 57
249 235 215 240 231 244 287 270 65 137 145 141 152 146 107 66 78 103 113 126 128 131 138 149 132 147 163 160 167 149 145 137 130 138 160 178 163 148 149 168 146 138 118 101 93 88 51 25 348